ARIANE 5 DEB (SYLDA), 44803

Orbit data source: Space-Track

ARIANE 5 DEB (SYLDA), 44803 is space debris originally from a launch on Tue, 26 Nov 2019 UTC launched from the French Guiana (FRGUI). Debris objects in space refer to the collection of defunct objects orbiting the Earth. Examples of debris include non-operational satellites, rocket bodies, and fragments generated from explosions, collisions, or faulty payload assembly.

Loading next visibility...
Identifier
44803, 2019-080D
Orbit
Active
Last TLE update
17 hours ago
Origin
Manufacturer
ADS/Bremen
Mission
Spacecraft
Bus & Motor
SYLDA 5, Unknown motor
Mass
440 kg wet, 440 kg dry
Launch date (UTC)
2019-11-26 (6 years ago)
Launch vehicle
Unknown
Launch site
French Guiana (FRGUI)
Object type
Payload
Rocket body
Debris
Shape & HBR
Cyl, Unknown HBR
Radar Cross Section
27.391 m², Large (>1 m²)

Expand to show TLE details & history

TLE from 17 hours ago
0 ARIANE 5 DEB (SYLDA)
1 44803U 19080D   25183.67515681  .00111704  00000-0  45421-2 0  9997
2 44803   5.3385 299.0760 4526297 340.9918   6.4631  6.52914684 78917
Epoch: 2025-07-02T16:12Z
TLE epoch observation values (Epoch: 2025-07-02T16:12:13.548Z)
Latitude
-0.00001°
Longitude
135.06655°
Altitude
353.838 km
Speed
9.244 km/s
True Right ascension
19h 56m 18s
True Declination
0° 00' 00"
Sunlit
Object was in full shadow at epoch
Visualization orbit readout
Latitude
-2.81018°
Longitude
-14.56192°
Altitude
7,376.507 km
Speed
5 km/s
Apparent Right ascension
09h 49m 29s
Apparent Declination
-14° 18' 14"
Sunlit
Object is in daylight
Visualization observer readout
Local Sidereal Time
21:26:12
Azimuth
347.099° N
Elevation
-63.884°
Doppler factor
1
Orbital elements
Apogee altitude
11,194.416 km
Perigee altitude
243.436 km
Semi-major axis
12,097.063 km
Eccentricity
0.45263
Inclination
5.3385°
RAAN
299.076°
Arg. of periapsis
340.9918°
True anomaly
Unknown
Mean anomaly
6.4631°
Eccentric anomaly
Unknown
Mean motion
1.63126 °/min
Orbital period
220.69 mins
BSTAR
0.0045421
Loading maneuver chart data...
Loading SW <> Apogee altitude chart data...
Loading historical data...
Loading historical data...
Loading historical data...
Loading historical data...
Loading historical data...
Loading historical data...
Loading historical data...
Other satellites on launch #80 in the year 2019 (2019-11-26 UTC)

ARIANE 5 DEB (SYLDA) Visibility forecast

Observer location: undefined°, undefined°

Span
Click to sort rows by Start time (UTC) header in descending order
Start Az.
Max El. time (UTC)
Max El. Az.
Max El.
End time (UTC)
End Az.
93 mins2025-07-03 14:37:00.386Z215.304° SW2025-07-03 15:01:00.386Z162.858° S26.425°2025-07-03 16:10:00.386Z119.037° SE
123 mins2025-07-03 18:44:00.386Z239.041° WSW2025-07-03 19:48:00.386Z192.38° SSW28.336°2025-07-03 20:47:00.386Z142.407° SSE
20 mins2025-07-04 00:18:00.386Z226.106° WSW2025-07-04 00:29:00.386Z214.31° SW11.149°2025-07-04 00:38:00.386Z200.123° SSW
|